TRANSIT 17 [?]

Last updated on Mon Jun 26 2023 00:03:33 GMT+0000 (Coordinated Universal Time)

1 02965U 67092A 23176.36822744 .00000154 00000+0 21178-3 0 9992 2 02965 89.2297 94.4355 0047214 335.8871 146.8170 13.53117119749485
UTC large
Height (km)
Speed (km/s)
/
Latitude / Longitude
Inclination (degrees)
Orbital Period (minutes)
Azimuth
Elevation
Range (km)
Doppler Factor

Next 0 passes for location: London (51.5072 / 0.1276)

Sorry there are no passes over London.